Price, UT

7:02 PM MDT on April 30, 2017 (GMT -0600)
Carbon County

Weather History for KPUC - May, 2013

Change the Weather History Date:

Friday, May 3, 2013

  Actual Average Record
Temperature  
Mean Temperature 50 °F -  
Max Temperature 68 °F 63 °F 84 °F (2000)
Min Temperature 32 °F 36 °F 30 °F (2008)
Degree Days  
Heating Degree Days 15    
Moisture  
Dew Point 5 °F    
Average Humidity 18    
Maximum Humidity 32    
Minimum Humidity 7    
Precipitation  
Precipitation 0.00 in - - ()
Sea Level Pressure  
Sea Level Pressure 30.15 in    
Wind  
Wind Speed 6 mph (NE)    
Max Wind Speed 10 mph    
Max Gust Speed -    
Visibility 10 miles    
Events      
Averages and records for this station are not official NWS values.
T = Trace of Precipitation, MM = Missing Value Source: NWS Daily Summary

Daily Weather History Graph

Daily Weather History Graph

Search for Another Location

Airport or City:

Trip Planner

Search our weather history database for the weather conditions in past years. The results will help you decide how hot, cold, wet, or windy it might be!

Date:

Astronomy

May. 03, 2013 Rise Set
Actual Time 6:21 AM MDT 8:19 PM MDT
Civil Twilight 5:51 AM MDT 8:48 PM MDT
Nautical Twilight 5:15 AM MDT 9:24 PM MDT
Astronomical Twilight 4:37 AM MDT 10:03 PM MDT
Moon 2:46 AM MDT (5/3) 2:18 PM MDT (5/3)
Length of Visible Light 14h 56m
Length of Day
13h 58m
Last Quarter, 36% of the Moon is Illuminated
May 3
Last Quarter
May 9
New
May 17
First Quarter
May 24
Full
May 31
Last Quarter

Hourly Weather History & Observations

Time (MDT) Temp. Windchill Dew Point Humidity Pressure Visibility Wind Dir Wind Speed Gust Speed Precip Events Conditions
12:53 AM 36.0 °F 30.3 °F 3.9 °F 26% 30.42 in 10.0 mi NE 6.9 mph - N/A   Clear
1:53 AM 36.0 °F 29.0 °F 5.0 °F 27% 30.39 in 10.0 mi NNE 9.2 mph - N/A   Clear
2:53 AM 35.1 °F 27.9 °F 5.0 °F 28% 30.37 in 10.0 mi NNE 9.2 mph - N/A   Clear
3:53 AM 35.1 °F 31.0 °F 5.0 °F 28% 30.34 in 10.0 mi Variable 4.6 mph - N/A   Clear
4:53 AM 32.0 °F 24.8 °F 5.0 °F 32% 30.33 in 10.0 mi NNE 8.1 mph - N/A   Clear
5:53 AM 32.0 °F 24.2 °F 5.0 °F 32% 30.31 in 10.0 mi North 9.2 mph - N/A   Clear
6:53 AM 34.0 °F 28.8 °F 6.1 °F 31% 30.30 in 10.0 mi NNE 5.8 mph - N/A   Clear
7:53 AM 45.0 °F - 5.0 °F 19% 30.27 in 10.0 mi Calm Calm - N/A   Clear
8:53 AM 48.0 °F - 6.1 °F 18% 30.25 in 10.0 mi Calm Calm - N/A   Clear
9:53 AM 52.0 °F - 5.0 °F 15% 30.26 in 10.0 mi ESE 3.5 mph - N/A   Clear
10:53 AM 55.0 °F - 1.9 °F 12% 30.23 in 10.0 mi South 4.6 mph - N/A   Clear
11:53 AM 57.0 °F - 1.0 °F 10% 30.19 in 10.0 mi Variable 4.6 mph - N/A   Clear
12:53 PM 60.1 °F - 1.9 °F 10% 30.16 in 10.0 mi SSE 4.6 mph - N/A   Clear
1:53 PM 62.1 °F - 1.9 °F 9% 30.12 in 10.0 mi Calm Calm - N/A   Clear
2:53 PM 64.9 °F - 1.0 °F 8% 30.07 in 10.0 mi Variable 6.9 mph - N/A   Clear
3:53 PM 66.0 °F - -0.0 °F 7% 30.02 in 10.0 mi SE 4.6 mph - N/A   Clear
4:53 PM 66.9 °F - 3.0 °F 8% 29.99 in 10.0 mi Variable 3.5 mph - N/A   Clear
5:53 PM 68.0 °F - 3.0 °F 8% 29.96 in 10.0 mi Variable 6.9 mph - N/A   Clear
6:53 PM 64.9 °F - 3.0 °F 9% 29.95 in 10.0 mi Calm Calm - N/A   Clear
7:53 PM 62.1 °F - 5.0 °F 10% 29.91 in 10.0 mi Calm Calm - N/A   Clear
8:53 PM 53.1 °F - 10.9 °F 19% 29.94 in 10.0 mi NNE 8.1 mph - N/A   Clear
9:53 PM 48.9 °F - 8.1 °F 19% 29.95 in 10.0 mi NE 6.9 mph - N/A   Clear
10:53 PM 46.0 °F 41.0 °F 8.1 °F 21% 29.95 in 10.0 mi NNE 10.4 mph - N/A   Clear
11:53 PM 46.0 °F 41.0 °F 9.0 °F 22% 29.93 in 10.0 mi NNE 10.4 mph - N/A   Clear